Tracking 30990 objects as of 9-Jul-2025
HD Live streaming from Space Station
objects crossing your sky now

DMSP 5D-2 F11 DEB

Track DMSP 5D-2 F11 DEB now!
10-day predictions


NORAD ID: 29074
Int'l Code: 1991-082BV
Perigee: 718.5 km
Apogee: 732.5 km
Inclination: 98.6 °
Period: 99.2 minutes
Semi major axis: 7096 km
RCS: 0.0073 m2 (small)
Launch date: November 28, 1991
Source: United States (US)
Launch site: AIR FORCE WESTERN TEST RANGE (AFWTR)

Note: This is SATELLITE DEBRIS
Your satellite tracking list
Your tracking list is empty




NASA's NSSDC Master Catalog

Two Line Element Set (TLE):
1 29074U 91082BV  25189.47973295  .00004722  00000-0  11732-2 0  9994
2 29074  98.5902 266.8948 0009867 131.3390 228.8655 14.52242031 80592
Source of the keplerian elements: AFSPC